Tracking 31027 objects as of 19-Jul-2025
HD Live streaming from Space Station
objects crossing your sky now

STARLINK-3603

Track STARLINK-3603 now!
10-day predictions
STARLINK-3603 is classified as:


NORAD ID: 51816
Int'l Code: 2022-017BA
Perigee: 546.2 km
Apogee: 547.6 km
Inclination: 53.2 °
Period: 95.4 minutes
Semi major axis: 6917 km
RCS: Unknown
Launch date: February 25, 2022
Source: United States (US)
Launch site: AIR FORCE WESTERN TEST RANGE (AFWTR)
Your satellite tracking list
ST5-A
Track 1 satellite(s)




NASA's NSSDC Master Catalog

Two Line Element Set (TLE):
1 51816U 22017BA  25199.55610112  .00000365  00000-0  40990-4 0  9990
2 51816  53.2183 300.4292 0001066  83.6804 276.4310 15.08835256188785
Source of the keplerian elements: AFSPC